| time (UTC) | temp F | wind direction | speed MPH | gust MPH | rain 1hr in | rain 24hr in | rain mn in | humidity % | barometer mb |
| 20260505034538 | 40 | 48 | 7.0 | 12.0 | 0.00 | 0.00 | 0.00 | 51 | 1017.4 |
| 20260505033031 | 41 | 40 | 8.0 | 14.0 | 0.00 | 0.00 | 0.00 | 50 | 1016.9 |
| 20260505031531 | 41 | 33 | 11.0 | 17.0 | 0.00 | 0.00 | 0.00 | 48 | 1016.8 |
| 20260505030043 | 42 | 36 | 11.0 | 17.0 | 0.00 | 0.00 | 0.00 | 47 | 1016.5 |
| 20260505024529 | 43 | 35 | 12.0 | 16.0 | 0.00 | 0.00 | 0.00 | 45 | 1016.6 |
| 20260505023039 | 45 | 33 | 14.0 | 21.0 | 0.00 | 0.00 | 0.00 | 43 | 1016.3 |
| 20260505021531 | 46 | 42 | 19.0 | 24.0 | 0.00 | 0.00 | 0.00 | 41 | 1016.1 |
| 20260505020034 | 47 | 30 | 19.0 | 26.0 | 0.00 | 0.00 | 0.00 | 38 | 1015.9 |
| 20260505014537 | 49 | 34 | 18.0 | 26.0 | 0.00 | 0.00 | 0.00 | 35 | 1015.7 |
| 20260505013033 | 50 | 13 | 18.0 | 28.0 | 0.00 | 0.00 | 0.00 | 32 | 1015.5 |
| 20260505011530 | 51 | 31 | 20.0 | 30.0 | 0.00 | 0.00 | 0.00 | 29 | 1015.3 |
| 20260505010030 | 52 | 360 | 19.0 | 31.0 | 0.00 | 0.00 | 0.00 | 26 | 1015.3 |
| 20260505004554 | 52 | 9 | 21.0 | 29.0 | 0.00 | 0.00 | 0.00 | 26 | 1015.4 |
| 20260505003030 | 53 | 30 | 20.0 | 33.0 | 0.00 | 0.00 | 0.00 | 25 | 1015.1 |
| 20260505001536 | 53 | 344 | 24.0 | 34.0 | 0.00 | 0.00 | 0.00 | 23 | 1015.3 |
| 20260505000036 | 53 | 355 | 26.0 | 34.0 | 0.00 | 0.00 | 0.00 | 23 | 1015.2 |
| 20260504234528 | 53 | 355 | 26.0 | 36.0 | 0.00 | 0.00 | 0.00 | 24 | 1015.4 |
| 20260504233028 | 52 | 24 | 25.0 | 34.0 | 0.00 | 0.00 | 0.00 | 25 | 1015.2 |
| 20260504231530 | 53 | 5 | 30.0 | 38.0 | 0.00 | 0.00 | 0.00 | 25 | 1015.1 |
| 20260504230032 | 53 | 351 | 28.0 | 41.0 | 0.00 | 0.00 | 0.00 | 25 | 1015.1 |
| 20260504224534 | 53 | 9 | 21.0 | 43.0 | 0.00 | 0.00 | 0.00 | 26 | 1015.1 |
| 20260504223030 | 53 | 343 | 29.0 | 38.0 | 0.00 | 0.00 | 0.00 | 27 | 1015.0 |
| 20260504221538 | 53 | 5 | 23.0 | 36.0 | 0.00 | 0.00 | 0.00 | 30 | 1015.1 |
| 20260504220028 | 53 | 360 | 27.0 | 37.0 | 0.00 | 0.00 | 0.00 | 29 | 1015.0 |
| 20260504214531 | 53 | 336 | 24.0 | 36.0 | 0.00 | 0.00 | 0.00 | 30 | 1015.1 |
| 20260504213039 | 52 | 5 | 23.0 | 37.0 | 0.00 | 0.00 | 0.00 | 32 | 1015.2 |
| 20260504211535 | 51 | 343 | 24.0 | 32.0 | 0.00 | 0.00 | 0.00 | 34 | 1015.5 |
| 20260504210031 | 52 | 9 | 21.0 | 36.0 | 0.00 | 0.00 | 0.00 | 33 | 1015.5 |
| 20260504204533 | 51 | 343 | 24.0 | 38.0 | 0.00 | 0.00 | 0.00 | 33 | 1015.7 |
| 20260504203033 | 51 | 352 | 19.0 | 32.0 | 0.00 | 0.00 | 0.00 | 33 | 1015.6 |
| 20260504201530 | 50 | 5 | 19.0 | 36.0 | 0.00 | 0.00 | 0.00 | 35 | 1015.4 |
| 20260504200032 | 51 | 347 | 23.0 | 35.0 | 0.00 | 0.00 | 0.00 | 35 | 1015.4 |
| 20260504194529 | 52 | 20 | 26.0 | 36.0 | 0.00 | 0.00 | 0.00 | 34 | 1015.4 |
| 20260504193032 | 54 | 349 | 20.0 | 34.0 | 0.00 | 0.00 | 0.00 | 33 | 1015.3 |
| 20260504191546 | 51 | 355 | 23.0 | 39.0 | 0.00 | 0.00 | 0.00 | 38 | 1015.3 |
| 20260504190030 | 52 | 355 | 23.0 | 34.0 | 0.00 | 0.00 | 0.00 | 39 | 1015.3 |
| 20260504184540 | 53 | 350 | 22.0 | 38.0 | 0.00 | 0.00 | 0.00 | 39 | 1015.3 |
| 20260504183032 | 52 | 355 | 28.0 | 37.0 | 0.00 | 0.00 | 0.00 | 39 | 1015.3 |
| 20260504181533 | 51 | 343 | 21.0 | 33.0 | 0.00 | 0.00 | 0.00 | 39 | 1015.3 |
| 20260504180035 | 52 | 350 | 19.0 | 32.0 | 0.00 | 0.00 | 0.00 | 39 | 1015.5 |
| 20260504174530 | 52 | 355 | 24.0 | 33.0 | 0.00 | 0.00 | 0.00 | 39 | 1015.5 |
| 20260504173028 | 51 | 313 | 21.0 | 31.0 | 0.00 | 0.00 | 0.00 | 39 | 1015.5 |
| 20260504171530 | 51 | 348 | 19.0 | 28.0 | 0.00 | 0.00 | 0.00 | 42 | 1015.8 |
| 20260504081530 | 46 | 34 | 21.0 | 33.0 | 0.00 | 0.00 | 0.00 | 63 | 1015.1 |
| 20260504044534 | 54 | 39 | 24.0 | 34.0 | 0.00 | 0.00 | 0.00 | 42 | 1010.5 |
| 20260504043036 | 56 | 34 | 28.0 | 36.0 | 0.00 | 0.00 | 0.00 | 42 | 1009.9 |
| 20260504041530 | 55 | 26 | 15.0 | 19.0 | 0.00 | 0.00 | 0.00 | 43 | 1009.4 |
| 20260504040032 | 56 | 22 | 14.0 | 17.0 | 0.00 | 0.00 | 0.00 | 41 | 1009.1 |